QPF
0.00 0.01 0.01 0.02 0.02 0.05 0.05 0.06 0.08 0.11 0.11 0.10 0.11 0.11 0.08 0.08 0.09 0.10 0.11 0.12 0.13 0.15 0.15 0.14 0.14 0.15 0.17 0.18 0.20 0.19 0.19 0.21 0.19 0.16 0.10 0.06 0.05 0.05 0.06 0.06 0.05 0.05 0.05
0.01 0.01 0.01 0.02 0.07 0.08 0.08 0.10 0.11 0.12 0.10 0.09 0.09 0.09 0.11 0.11 0.09 0.10 0.11 0.11 0.14 0.19 0.22 0.23 0.22 0.22 0.21 0.23 0.25 0.23 0.22 0.20 0.20 0.19 0.17 0.11 0.07 0.05 0.05 0.05 0.04 0.04 0.04
0.01 0.01 0.01 0.01 0.01 0.01 0.02 0.04 0.07 0.07 0.07 0.06 0.06 0.06 0.08 0.10 0.10 0.09 0.13 0.13 0.12 0.13 0.18 0.21 0.23 0.24 0.22 0.23 0.28 0.28 0.26 0.22 0.20 0.20 0.22 0.18 0.13 0.09 0.07 0.05 0.04 0.04 0.04
0.01 0.01 0.01 0.01 0.01 0.01 0.01 0.01 0.02 0.03 0.04 0.04 0.04 0.06 0.08 0.08 0.09 0.10 0.12 0.17 0.20 0.17 0.16 0.19 0.20 0.19 0.19 0.21 0.24 0.30 0.29 0.27 0.25 0.24 0.22 0.19 0.15 0.12 0.10 0.07 0.05 0.04 0.04
0.01 0.01 0.01 0.01 0.01 0.01 0.01 0.01 0.02 0.02 0.03 0.06 0.05 0.06 0.07 0.08 0.09 0.10 0.10 0.11 0.17 0.17 0.14 0.11 0.12 0.13 0.13 0.16 0.21 0.27 0.32 0.32 0.30 0.29 0.26 0.23 0.18 0.13 0.09 0.09 0.07 0.06 0.05
0.01 0.01 0.01 0.00 0.00 0.01 0.01 0.02 0.02 0.02 0.04 0.06 0.07 0.07 0.08 0.09 0.10 0.10 0.10 0.09 0.10 0.11 0.09 0.08 0.07 0.08 0.09 0.09 0.12 0.17 0.24 0.31 0.33 0.34 0.33 0.30 0.27 0.22 0.17 0.13 0.12 0.10 0.08
0.01 0.01 0.00 0.00 0.00 0.01 0.01 0.02 0.02 0.02 0.02 0.03 0.05 0.07 0.08 0.09 0.10 0.10 0.09 0.09 0.09 0.08 0.07 0.06 0.06 0.07 0.08 0.08 0.10 0.14 0.21 0.27 0.31 0.35 0.36 0.35 0.32 0.28 0.26 0.24 0.22 0.18 0.15
0.00 0.00 0.00 0.00 0.01 0.02 0.02 0.03 0.02 0.02 0.01 0.03 0.04 0.06 0.06 0.06 0.09 0.09 0.08 0.07 0.07 0.07 0.06 0.05 0.04 0.06 0.07 0.08 0.08 0.11 0.15 0.20 0.25 0.32 0.36 0.37 0.35 0.33 0.31 0.30 0.28 0.27 0.23
0.00 0.00 0.00 0.00 0.01 0.01 0.01 0.02 0.02 0.02 0.02 0.03 0.02 0.03 0.04 0.04 0.05 0.07 0.07 0.06 0.05 0.05 0.05 0.04 0.03 0.04 0.06 0.08 0.08 0.09 0.12 0.14 0.17 0.24 0.31 0.34 0.34 0.30 0.30 0.31 0.30 0.28 0.27
0.00 0.00 0.00 0.00 0.01 0.01 0.01 0.01 0.02 0.03 0.02 0.02 0.03 0.02 0.03 0.03 0.03 0.05 0.07 0.06 0.05 0.04 0.04 0.03 0.03 0.03 0.04 0.06 0.08 0.08 0.10 0.13 0.14 0.16 0.20 0.26 0.28 0.28 0.28 0.28 0.27 0.24 0.21
0.00 0.00 0.00 0.00 0.00 0.00 0.01 0.01 0.01 0.02 0.02 0.02 0.02 0.02 0.02 0.03 0.03 0.03 0.04 0.04 0.03 0.03 0.03 0.02 0.03 0.04 0.04 0.05 0.07 0.08 0.07 0.09 0.12 0.16 0.18 0.21 0.23 0.25 0.27 0.26 0.25 0.24 0.21
0.00 0.00 0.00 0.00 0.00 0.00 0.01 0.01 0.01 0.01 0.01 0.02 0.02 0.02 0.01 0.02 0.02 0.03 0.04 0.04 0.02 0.02 0.03 0.03 0.04 0.05 0.07 0.07 0.06 0.07 0.08 0.08 0.08 0.11 0.13 0.16 0.18 0.18 0.19 0.18 0.18 0.18 0.16
0.00 0.00 0.00 0.00 0.00 0.00 0.00 0.01 0.02 0.03 0.02 0.02 0.02 0.02 0.01 0.01 0.02 0.03 0.03 0.02 0.01 0.01 0.02 0.03 0.04 0.06 0.07 0.08 0.07 0.07 0.07 0.08 0.08 0.08 0.08 0.10 0.11 0.11 0.11 0.10 0.09 0.09 0.08
0.00 0.00 0.00 0.00 0.00 0.00 0.00 0.00 0.01 0.03 0.05 0.05 0.04 0.03 0.02 0.01 0.01 0.02 0.03 0.03 0.03 0.03 0.04 0.04 0.06 0.06 0.06 0.07 0.07 0.08 0.09 0.09 0.09 0.09 0.08 0.08 0.08 0.07 0.07 0.06 0.05 0.04 0.03
0.00 0.00 0.00 0.00 0.00 0.00 0.00 0.01 0.01 0.01 0.03 0.04 0.04 0.04 0.03 0.02 0.01 0.01 0.03 0.06 0.04 0.04 0.05 0.06 0.08 0.08 0.06 0.07 0.07 0.07 0.08 0.08 0.07 0.06 0.05 0.05 0.05 0.05 0.04 0.03 0.03 0.02 0.02
0.00 0.00 0.00 0.00 0.01 0.01 0.00 0.00 0.01 0.01 0.01 0.02 0.02 0.03 0.03 0.02 0.02 0.02 0.02 0.04 0.05 0.05 0.05 0.04 0.06 0.07 0.07 0.08 0.08 0.07 0.06 0.05 0.05 0.04 0.03 0.02 0.02 0.02 0.02 0.01 0.01 0.01 0.01
0.00 0.00 0.00 0.00 0.01 0.01 0.01 0.00 0.01 0.01 0.01 0.02 0.02 0.03 0.02 0.02 0.02 0.03 0.03 0.03 0.04 0.06 0.07 0.05 0.04 0.04 0.06 0.07 0.07 0.06 0.05 0.04 0.03 0.02 0.01 0.01 0.00 0.00 0.00 0.00 0.00 0.00 0.00
0.01 0.01 0.00 0.01 0.01 0.02 0.01 0.01 0.01 0.01 0.01 0.02 0.02 0.02 0.02 0.03 0.03 0.03 0.03 0.04 0.04 0.07 0.09 0.07 0.06 0.05 0.04 0.04 0.04 0.03 0.02 0.02 0.01 0.01 0.00 0.00 0.00 0.00 0.00 0.00 0.00 0.00 0.00
0.01 0.01 0.00 0.00 0.01 0.01 0.02 0.02 0.02 0.02 0.02 0.02 0.03 0.03 0.02 0.03 0.03 0.03 0.03 0.03 0.04 0.04 0.05 0.06 0.06 0.06 0.04 0.03 0.03 0.02 0.01 0.01 0.01 0.00 0.00 0.00 0.00 0.00 0.00 0.00 0.00 0.00 0.00
0.01 0.01 0.01 0.01 0.02 0.02 0.02 0.02 0.02 0.02 0.02 0.02 0.03 0.03 0.04 0.03 0.03 0.03 0.03 0.04 0.04 0.03 0.02 0.03 0.04 0.04 0.03 0.02 0.02 0.02 0.02 0.01 0.01 0.00 0.00 0.00 0.00 0.00 0.00 0.00 0.00 0.00 0.00
0.00 0.01 0.01 0.02 0.04 0.04 0.02 0.02 0.02 0.03 0.03 0.03 0.03 0.03 0.03 0.03 0.03 0.04 0.04 0.03 0.03 0.04 0.03 0.02 0.02 0.02 0.01 0.01 0.01 0.01 0.01 0.01 0.01 0.00 0.00 0.00 0.00 0.00 0.00 0.00 0.00 0.00 0.00
0.01 0.02 0.02 0.04 0.05 0.04 0.03 0.03 0.03 0.03 0.03 0.03 0.03 0.03 0.03 0.03 0.04 0.05 0.04 0.03 0.03 0.04 0.04 0.03 0.02 0.02 0.01 0.00 0.00 0.00 0.00 0.00 0.00 0.00 0.00 0.00 0.00 0.00 0.00 0.00 0.00 0.00 0.00
0.02 0.02 0.03 0.05 0.04 0.04 0.04 0.04 0.04 0.03 0.03 0.03 0.03 0.03 0.03 0.04 0.06 0.06 0.06 0.04 0.04 0.03 0.03 0.03 0.03 0.02 0.01 0.00 0.00 0.00 0.00 0.00 0.00 0.00 0.00 0.00 0.00 0.00 0.00 0.00 0.00 0.00 0.00
0.01 0.02 0.02 0.03 0.04 0.04 0.03 0.03 0.03 0.03 0.04 0.04 0.04 0.03 0.03 0.04 0.06 0.05 0.05 0.04 0.03 0.03 0.02 0.02 0.02 0.02 0.02 0.01 0.00 0.00 0.00 0.00 0.00 0.00 0.00 0.00 0.00 0.00 0.00 0.00 0.00 0.00 0.00
0.02 0.02 0.02 0.03 0.03 0.03 0.02 0.02 0.03 0.04 0.04 0.05 0.04 0.04 0.04 0.04 0.04 0.03 0.03 0.02 0.01 0.01 0.02 0.03 0.02 0.02 0.01 0.01 0.00 0.00 0.00 0.00 0.00 0.00 0.00 0.00 0.00 0.00 0.00 0.00 0.00 0.00 0.00
0.01 0.02 0.02 0.02 0.02 0.03 0.03 0.02 0.03 0.04 0.05 0.05 0.04 0.04 0.03 0.02 0.02 0.02 0.01 0.01 0.01 0.01 0.01 0.01 0.01 0.01 0.01 0.00 0.00 0.00 0.00 0.00 0.00 0.00 0.00 0.00 0.00 0.00 0.00 0.00 0.01 0.00 0.00
MSLP
1017.44 1017.66 1017.86 1018.03 1018.14 1018.18 1018.14 1018.01 1017.83 1017.59 1017.35 1017.12 1016.93 1016.81 1016.76 1016.78 1016.87 1016.99 1017.11 1017.21 1017.27 1017.27 1017.22 1017.12 1016.99 1016.88 1016.81 1016.82 1016.90 1017.09 1017.38 1017.75 1018.19 1018.67 1019.18 1019.69 1020.19 1020.66 1021.08 1021.45 1021.75 1021.99 1022.18
1017.63 1017.92 1018.18 1018.39 1018.51 1018.55 1018.49 1018.34 1018.12 1017.85 1017.57 1017.30 1017.07 1016.90 1016.80 1016.77 1016.81 1016.89 1016.99 1017.09 1017.17 1017.21 1017.21 1017.16 1017.09 1017.00 1016.92 1016.89 1016.91 1017.01 1017.20 1017.48 1017.86 1018.33 1018.87 1019.45 1020.07 1020.69 1021.28 1021.80 1022.25 1022.61 1022.87
1017.65 1018.06 1018.42 1018.69 1018.85 1018.91 1018.84 1018.68 1018.44 1018.15 1017.84 1017.54 1017.27 1017.06 1016.90 1016.82 1016.79 1016.82 1016.89 1016.97 1017.06 1017.12 1017.16 1017.16 1017.12 1017.04 1016.95 1016.86 1016.80 1016.78 1016.85 1017.02 1017.31 1017.72 1018.25 1018.89 1019.61 1020.37 1021.14 1021.85 1022.49 1023.00 1023.39
1017.56 1018.12 1018.59 1018.95 1019.18 1019.26 1019.21 1019.04 1018.79 1018.49 1018.16 1017.85 1017.56 1017.31 1017.11 1016.97 1016.88 1016.85 1016.87 1016.91 1016.98 1017.05 1017.10 1017.12 1017.10 1017.02 1016.90 1016.75 1016.59 1016.45 1016.38 1016.42 1016.59 1016.92 1017.42 1018.08 1018.87 1019.76 1020.69 1021.59 1022.42 1023.12 1023.66
1017.45 1018.15 1018.75 1019.21 1019.49 1019.61 1019.57 1019.40 1019.15 1018.85 1018.53 1018.21 1017.92 1017.66 1017.43 1017.25 1017.11 1017.01 1016.96 1016.95 1016.97 1017.01 1017.05 1017.06 1017.03 1016.93 1016.78 1016.57 1016.32 1016.07 1015.87 1015.77 1015.82 1016.06 1016.50 1017.15 1017.98 1018.96 1020.02 1021.09 1022.10 1022.98 1023.70
1017.39 1018.22 1018.92 1019.45 1019.79 1019.92 1019.89 1019.73 1019.49 1019.20 1018.89 1018.60 1018.33 1018.08 1017.85 1017.64 1017.46 1017.30 1017.18 1017.09 1017.04 1017.02 1017.01 1016.98 1016.92 1016.81 1016.62 1016.36 1016.04 1015.71 1015.42 1015.21 1015.15 1015.29 1015.66 1016.27 1017.11 1018.13 1019.27 1020.46 1021.61 1022.65 1023.54
1017.42 1018.35 1019.13 1019.70 1020.06 1020.20 1020.17 1020.00 1019.76 1019.49 1019.23 1018.98 1018.75 1018.54 1018.33 1018.12 1017.91 1017.69 1017.50 1017.32 1017.18 1017.08 1016.99 1016.91 1016.81 1016.66 1016.45 1016.16 1015.82 1015.45 1015.09 1014.82 1014.68 1014.75 1015.04 1015.60 1016.40 1017.41 1018.58 1019.83 1021.06 1022.22 1023.25
1017.57 1018.56 1019.37 1019.95 1020.30 1020.42 1020.37 1020.20 1019.97 1019.73 1019.51 1019.32 1019.16 1019.01 1018.84 1018.65 1018.42 1018.17 1017.90 1017.64 1017.40 1017.19 1017.02 1016.87 1016.72 1016.54 1016.32 1016.04 1015.71 1015.34 1014.98 1014.68 1014.51 1014.52 1014.76 1015.24 1015.98 1016.94 1018.08 1019.31 1020.57 1021.79 1022.89
1017.83 1018.83 1019.63 1020.20 1020.51 1020.60 1020.53 1020.34 1020.12 1019.92 1019.76 1019.64 1019.56 1019.48 1019.37 1019.21 1018.99 1018.70 1018.37 1018.03 1017.69 1017.38 1017.12 1016.90 1016.70 1016.51 1016.29 1016.04 1015.75 1015.43 1015.11 1014.84 1014.67 1014.65 1014.84 1015.26 1015.91 1016.78 1017.83 1019.00 1020.21 1021.41 1022.53
1018.15 1019.14 1019.91 1020.44 1020.70 1020.75 1020.65 1020.46 1020.26 1020.10 1020.00 1019.96 1019.97 1019.97 1019.92 1019.81 1019.60 1019.29 1018.92 1018.50 1018.08 1017.68 1017.34 1017.05 1016.81 1016.61 1016.41 1016.21 1015.98 1015.73 1015.49 1015.28 1015.14 1015.13 1015.28 1015.63 1016.19 1016.94 1017.86 1018.91 1020.03 1021.15 1022.22
1018.50 1019.45 1020.18 1020.65 1020.87 1020.89 1020.77 1020.59 1020.42 1020.31 1020.28 1020.32 1020.40 1020.48 1020.50 1020.43 1020.24 1019.94 1019.54 1019.08 1018.60 1018.13 1017.73 1017.39 1017.12 1016.91 1016.74 1016.58 1016.43 1016.27 1016.11 1015.97 1015.88 1015.89 1016.02 1016.30 1016.76 1017.38 1018.16 1019.05 1020.02 1021.02 1022.00
1018.81 1019.72 1020.41 1020.84 1021.03 1021.03 1020.91 1020.76 1020.63 1020.57 1020.60 1020.72 1020.87 1021.01 1021.10 1021.07 1020.92 1020.63 1020.23 1019.75 1019.24 1018.75 1018.30 1017.94 1017.65 1017.44 1017.29 1017.18 1017.08 1016.99 1016.90 1016.83 1016.80 1016.82 1016.94 1017.17 1017.52 1018.02 1018.64 1019.37 1020.17 1021.02 1021.87
1019.06 1019.93 1020.58 1020.98 1021.16 1021.16 1021.07 1020.96 1020.88 1020.89 1020.98 1021.15 1021.36 1021.56 1021.68 1021.70 1021.59 1021.33 1020.96 1020.50 1020.00 1019.51 1019.06 1018.69 1018.40 1018.19 1018.05 1017.96 1017.90 1017.86 1017.82 1017.80 1017.80 1017.83 1017.93 1018.11 1018.38 1018.76 1019.24 1019.80 1020.45 1021.14 1021.85
1019.23 1020.08 1020.69 1021.08 1021.26 1021.29 1021.24 1021.18 1021.16 1021.22 1021.37 1021.58 1021.83 1022.05 1022.21 1022.27 1022.20 1021.99 1021.67 1021.26 1020.81 1020.36 1019.94 1019.59 1019.31 1019.10 1018.97 1018.88 1018.83 1018.80 1018.78 1018.78 1018.79 1018.83 1018.91 1019.05 1019.25 1019.53 1019.89 1020.32 1020.81 1021.36 1021.93
1019.36 1020.16 1020.75 1021.13 1021.33 1021.39 1021.39 1021.39 1021.42 1021.53 1021.71 1021.94 1022.20 1022.44 1022.62 1022.71 1022.68 1022.53 1022.29 1021.97 1021.60 1021.22 1020.87 1020.56 1020.31 1020.11 1019.96 1019.86 1019.79 1019.74 1019.72 1019.71 1019.71 1019.75 1019.81 1019.92 1020.07 1020.28 1020.55 1020.88 1021.26 1021.68 1022.14
1019.45 1020.21 1020.77 1021.15 1021.36 1021.46 1021.51 1021.55 1021.63 1021.76 1021.95 1022.19 1022.44 1022.68 1022.86 1022.97 1022.99 1022.91 1022.76 1022.54 1022.29 1022.02 1021.75 1021.51 1021.29 1021.11 1020.95 1020.82 1020.72 1020.64 1020.58 1020.54 1020.54 1020.56 1020.61 1020.70 1020.84 1021.01 1021.22 1021.48 1021.78 1022.11 1022.48
1019.56 1020.26 1020.79 1021.14 1021.36 1021.49 1021.57 1021.65 1021.75 1021.89 1022.08 1022.30 1022.53 1022.74 1022.92 1023.04 1023.10 1023.10 1023.05 1022.95 1022.82 1022.67 1022.51 1022.34 1022.18 1022.01 1021.85 1021.70 1021.56 1021.44 1021.34 1021.28 1021.25 1021.27 1021.33 1021.42 1021.55 1021.71 1021.90 1022.12 1022.36 1022.64 1022.94
1019.69 1020.33 1020.81 1021.14 1021.36 1021.50 1021.59 1021.68 1021.79 1021.92 1022.09 1022.27 1022.46 1022.65 1022.81 1022.94 1023.05 1023.12 1023.16 1023.18 1023.18 1023.15 1023.10 1023.02 1022.92 1022.78 1022.63 1022.46 1022.29 1022.13 1022.01 1021.92 1021.89 1021.91 1021.98 1022.09 1022.23 1022.40 1022.59 1022.80 1023.02 1023.25 1023.49
1019.85 1020.43 1020.86 1021.16 1021.36 1021.49 1021.59 1021.68 1021.78 1021.89 1022.02 1022.17 1022.32 1022.47 1022.62 1022.76 1022.90 1023.03 1023.16 1023.28 1023.40 1023.48 1023.54 1023.54 1023.50 1023.41 1023.26 1023.09 1022.91 1022.74 1022.60 1022.52 1022.49 1022.52 1022.61 1022.75 1022.91 1023.10 1023.30 1023.50 1023.70 1023.90 1024.10
1020.02 1020.54 1020.92 1021.20 1021.38 1021.51 1021.60 1021.68 1021.76 1021.85 1021.95 1022.06 1022.17 1022.30 1022.43 1022.58 1022.74 1022.93 1023.13 1023.34 1023.54 1023.73 1023.87 1023.95 1023.97 1023.91 1023.80 1023.64 1023.47 1023.30 1023.16 1023.09 1023.07 1023.13 1023.24 1023.40 1023.59 1023.80 1024.00 1024.19 1024.37 1024.54 1024.69
1020.17 1020.65 1021.00 1021.25 1021.42 1021.54 1021.63 1021.70 1021.77 1021.85 1021.93 1022.01 1022.10 1022.21 1022.33 1022.48 1022.67 1022.90 1023.15 1023.42 1023.70 1023.95 1024.16 1024.30 1024.36 1024.35 1024.27 1024.14 1023.98 1023.84 1023.72 1023.66 1023.67 1023.74 1023.87 1024.05 1024.25 1024.45 1024.65 1024.82 1024.96 1025.09 1025.19
1020.28 1020.73 1021.06 1021.30 1021.47 1021.59 1021.69 1021.77 1021.84 1021.91 1021.99 1022.06 1022.15 1022.25 1022.37 1022.53 1022.74 1022.99 1023.28 1023.59 1023.90 1024.20 1024.45 1024.63 1024.73 1024.76 1024.71 1024.61 1024.49 1024.36 1024.27 1024.23 1024.25 1024.34 1024.47 1024.65 1024.83 1025.02 1025.18 1025.32 1025.42 1025.49 1025.54
1020.33 1020.77 1021.10 1021.35 1021.53 1021.66 1021.77 1021.87 1021.96 1022.04 1022.13 1022.21 1022.31 1022.42 1022.55 1022.73 1022.95 1023.21 1023.52 1023.84 1024.18 1024.49 1024.77 1024.97 1025.11 1025.16 1025.14 1025.07 1024.98 1024.88 1024.81 1024.78 1024.81 1024.88 1025.00 1025.14 1025.30 1025.44 1025.56 1025.64 1025.69 1025.71 1025.70
1020.33 1020.77 1021.11 1021.37 1021.57 1021.73 1021.87 1021.99 1022.11 1022.22 1022.33 1022.44 1022.55 1022.68 1022.84 1023.03 1023.26 1023.53 1023.84 1024.17 1024.50 1024.82 1025.10 1025.32 1025.47 1025.54 1025.55 1025.51 1025.43 1025.36 1025.29 1025.26 1025.27 1025.32 1025.40 1025.50 1025.60 1025.68 1025.74 1025.76 1025.76 1025.73 1025.68
1020.29 1020.75 1021.10 1021.38 1021.61 1021.80 1021.97 1022.12 1022.27 1022.41 1022.55 1022.69 1022.83 1022.99 1023.16 1023.36 1023.60 1023.87 1024.17 1024.49 1024.82 1025.13 1025.41 1025.63 1025.78 1025.87 1025.90 1025.88 1025.82 1025.75 1025.68 1025.64 1025.61 1025.62 1025.65 1025.68 1025.72 1025.74 1025.73 1025.71 1025.66 1025.60 1025.53
1020.27 1020.72 1021.09 1021.39 1021.65 1021.87 1022.06 1022.25 1022.43 1022.60 1022.77 1022.93 1023.09 1023.26 1023.45 1023.66 1023.89 1024.16 1024.45 1024.76 1025.08 1025.37 1025.64 1025.86 1026.02 1026.12 1026.15 1026.14 1026.09 1026.02 1025.94 1025.86 1025.81 1025.76 1025.73 1025.70 1025.68 1025.64 1025.59 1025.53 1025.46 1025.39 1025.32
Thickness
5694 5693 5692 5692 5692 5692 5693 5694 5695 5696 5698 5699 5700 5700 5701 5701 5701 5700 5700 5700 5700 5700 5700 5702 5702 5702 5703 5704 5703 5701 5698 5697 5695 5691 5686 5684 5686 5686 5686 5686 5687 5686 5685
5686 5683 5682 5682 5682 5682 5682 5684 5685 5686 5687 5689 5690 5691 5692 5692 5693 5693 5692 5692 5693 5694 5695 5695 5696 5697 5698 5698 5698 5696 5694 5692 5692 5689 5683 5678 5675 5676 5677 5678 5679 5678 5677
5677 5674 5672 5671 5672 5671 5672 5673 5673 5675 5677 5679 5682 5683 5684 5684 5684 5684 5684 5684 5685 5687 5688 5689 5691 5692 5693 5693 5693 5692 5690 5688 5687 5688 5685 5680 5677 5672 5668 5668 5669 5669 5668
5669 5666 5663 5661 5661 5661 5663 5664 5664 5666 5667 5670 5672 5674 5674 5674 5674 5675 5676 5676 5677 5679 5681 5683 5685 5685 5687 5688 5688 5688 5688 5686 5683 5683 5685 5685 5684 5674 5664 5659 5659 5659 5659
5662 5657 5653 5651 5651 5652 5654 5655 5655 5656 5658 5660 5662 5663 5664 5665 5665 5666 5666 5668 5669 5670 5673 5675 5676 5677 5680 5681 5681 5682 5683 5684 5683 5681 5679 5677 5677 5677 5670 5658 5651 5649 5647
5655 5650 5647 5644 5643 5644 5645 5646 5646 5647 5648 5649 5651 5652 5653 5654 5655 5655 5657 5659 5660 5661 5663 5665 5667 5669 5671 5672 5674 5675 5677 5678 5678 5677 5676 5675 5672 5670 5668 5660 5649 5643 5637
5649 5644 5640 5637 5636 5636 5636 5637 5637 5637 5638 5639 5640 5641 5643 5644 5645 5646 5646 5648 5650 5651 5652 5655 5658 5660 5661 5664 5666 5668 5669 5670 5670 5671 5671 5670 5669 5668 5664 5657 5646 5637 5630
5643 5637 5633 5630 5629 5628 5627 5628 5628 5628 5629 5629 5630 5631 5633 5634 5635 5635 5636 5638 5639 5640 5642 5645 5647 5650 5653 5656 5659 5661 5661 5662 5662 5663 5664 5663 5662 5661 5658 5653 5644 5632 5623
5636 5631 5627 5624 5622 5620 5619 5619 5619 5619 5619 5620 5621 5622 5623 5623 5624 5625 5626 5628 5629 5631 5633 5636 5638 5641 5644 5647 5651 5653 5653 5654 5655 5655 5655 5655 5654 5652 5651 5647 5644 5636 5624
5630 5624 5620 5617 5615 5613 5612 5611 5610 5610 5610 5611 5612 5612 5612 5613 5615 5616 5616 5618 5619 5621 5624 5626 5628 5631 5635 5638 5641 5643 5644 5645 5645 5645 5645 5646 5644 5642 5640 5637 5635 5633 5628
5625 5618 5614 5611 5608 5606 5605 5603 5602 5602 5602 5602 5603 5603 5603 5604 5605 5606 5607 5608 5610 5612 5614 5616 5619 5622 5625 5628 5630 5632 5634 5635 5635 5636 5636 5635 5633 5632 5630 5628 5626 5624 5621
5619 5613 5609 5605 5602 5599 5598 5596 5595 5594 5594 5594 5593 5593 5594 5595 5596 5596 5597 5598 5600 5602 5604 5606 5609 5612 5614 5617 5620 5622 5624 5625 5625 5626 5626 5625 5624 5622 5621 5619 5616 5613 5610
5612 5608 5602 5598 5595 5592 5590 5589 5587 5586 5585 5585 5585 5584 5584 5585 5585 5586 5588 5589 5591 5592 5594 5597 5599 5601 5604 5606 5608 5611 5613 5614 5615 5615 5615 5614 5613 5612 5610 5609 5606 5603 5600
5605 5601 5595 5590 5586 5584 5581 5580 5579 5577 5576 5576 5575 5574 5574 5575 5575 5577 5579 5580 5581 5582 5583 5585 5588 5590 5593 5595 5597 5599 5601 5603 5604 5604 5604 5603 5602 5601 5600 5599 5596 5594 5590
5598 5592 5586 5582 5578 5575 5572 5570 5568 5567 5566 5566 5565 5564 5564 5565 5566 5567 5568 5569 5571 5572 5573 5575 5577 5579 5581 5582 5586 5589 5590 5592 5593 5592 5591 5589 5588 5587 5589 5589 5586 5585 5583
5592 5585 5579 5574 5570 5566 5564 5561 5559 5557 5557 5556 5555 5555 5555 5555 5556 5556 5557 5559 5560 5561 5562 5563 5565 5566 5567 5568 5572 5576 5579 5580 5581 5581 5579 5578 5577 5575 5575 5574 5573 5572 5573
5584 5577 5570 5565 5561 5557 5555 5553 5550 5549 5548 5547 5546 5545 5545 5545 5545 5546 5546 5547 5548 5549 5551 5552 5553 5552 5552 5555 5559 5563 5566 5568 5569 5569 5569 5569 5566 5567 5565 5562 5561 5559 5558
5576 5569 5562 5556 5552 5549 5546 5544 5542 5540 5540 5538 5537 5536 5536 5535 5535 5535 5535 5536 5537 5538 5540 5541 5541 5541 5540 5543 5547 5551 5555 5556 5557 5557 5558 5557 5556 5556 5557 5557 5555 5552 5549
5569 5561 5555 5549 5544 5540 5538 5536 5534 5532 5531 5529 5528 5527 5526 5526 5526 5526 5526 5527 5528 5529 5531 5531 5531 5532 5531 5533 5537 5542 5545 5545 5546 5547 5546 5547 5545 5542 5544 5547 5546 5544 5540
5560 5552 5546 5541 5536 5532 5530 5529 5526 5524 5522 5521 5519 5518 5518 5518 5518 5518 5518 5519 5520 5521 5523 5522 5523 5523 5524 5524 5528 5533 5539 5538 5539 5537 5536 5533 5534 5533 5535 5539 5538 5536 5534
5550 5544 5539 5534 5529 5525 5523 5521 5519 5516 5514 5513 5511 5511 5511 5510 5511 5510 5511 5512 5513 5514 5515 5515 5515 5515 5515 5516 5519 5523 5530 5532 5533 5532 5530 5525 5523 5524 5525 5527 5528 5525 5526
5542 5537 5532 5527 5522 5518 5516 5514 5512 5509 5508 5506 5505 5504 5505 5506 5505 5505 5505 5506 5508 5508 5509 5510 5510 5510 5509 5509 5511 5513 5516 5520 5524 5524 5522 5517 5515 5516 5517 5518 5516 5517 5519
5537 5531 5527 5521 5517 5513 5511 5509 5505 5504 5503 5501 5500 5499 5500 5499 5500 5500 5501 5502 5503 5506 5506 5506 5507 5507 5506 5504 5504 5507 5509 5511 5514 5513 5509 5509 5509 5509 5511 5509 5511 5513 5517
5531 5527 5522 5517 5512 5509 5507 5504 5502 5500 5499 5497 5496 5495 5495 5496 5496 5498 5499 5500 5500 5501 5503 5503 5503 5503 5504 5504 5505 5506 5506 5505 5508 5508 5504 5504 5505 5506 5505 5506 5509 5510 5510
5527 5522 5517 5513 5509 5505 5502 5500 5498 5497 5495 5494 5493 5493 5492 5493 5493 5492 5490 5493 5491 5492 5495 5497 5499 5501 5500 5493 5493 5500 5504 5505 5504 5505 5507 5507 5507 5507 5506 5506 5505 5505 5505
5524 5518 5514 5510 5506 5503 5500 5498 5496 5494 5493 5492 5492 5492 5492 5491 5492 5491 5487 5482 5484 5484 5485 5486 5489 5489 5488 5488 5489 5491 5493 5495 5496 5501 5504 5504 5504 5504 5503 5503 5502 5501 5500